RH
100 100 100 100 100 100 100 100 99 98 96 96 97 98 98 99 100 100 100 100 99 97 95 92 90 88 87 87 87 87 88 88 89 90 91 92 93 93 92 90 86 80 76 72 74 79 89 94 95 94 90 81 76 72 71 64 53 40 27 19 14 11 10 8 8 9 12 18 24 29 33 34 32 30 26 24 24 28 33 40 45 50 53 55 56 55
99 100 100 100 100 100 100 100 99 98 96 98 99 100 100 100 100 100 100 100 99 98 96 94 92 90 89 88 88 88 88 88 88 88 88 89 90 89 88 84 80 78 78 79 83 90 96 96 94 90 84 78 74 70 66 56 44 32 22 16 12 10 8 7 8 10 17 25 32 37 39 36 31 26 23 24 27 32 38 43 47 51 54 56 56 54
98 99 100 100 100 100 100 100 99 99 98 99 100 100 100 100 100 100 100 100 99 98 97 96 94 92 91 90 90 91 92 92 92 92 91 90 89 87 84 82 83 84 83 84 89 94 95 94 92 87 81 77 74 68 60 47 36 27 19 14 11 8 7 7 9 15 24 34 40 42 40 32 26 22 22 27 32 38 42 44 48 52 55 56 56 53
94 96 98 100 100 100 100 100 100 100 100 100 100 100 100 100 100 100 100 99 98 98 97 96 95 94 92 92 92 93 94 95 96 96 94 92 90 88 85 87 88 88 85 86 89 92 92 90 88 84 80 78 72 63 51 40 31 24 17 13 10 7 6 8 13 22 33 42 45 43 35 27 23 23 27 33 38 40 42 45 49 54 57 56 54 52
90 91 94 98 99 100 100 100 100 100 100 100 100 100 100 100 100 100 100 99 99 99 98 98 96 94 93 92 93 93 94 95 96 97 96 94 92 90 90 90 90 88 85 84 85 87 87 86 84 82 80 75 66 54 42 34 27 21 15 11 8 6 7 12 22 32 43 47 45 38 28 24 24 28 34 38 40 40 42 46 52 56 58 56 53 49
84 86 89 93 96 99 100 100 100 100 100 100 100 100 100 100 100 100 100 100 100 100 100 99 98 97 96 95 95 96 96 96 97 98 97 96 95 94 93 92 90 87 84 83 83 84 84 84 84 82 78 68 56 45 36 30 24 18 12 8 6 7 11 22 34 44 50 47 40 32 26 27 31 36 39 39 39 40 44 50 55 58 58 54 50 44
84 85 86 89 92 96 99 100 100 100 100 100 100 100 100 100 100 100 100 100 100 100 100 100 99 99 99 99 99 99 98 99 99 99 98 98 97 96 94 92 90 88 85 84 84 85 86 86 84 80 72 58 47 38 31 26 19 13 8 6 8 13 24 38 48 53 52 43 34 29 29 34 38 40 40 39 39 42 47 54 57 58 56 52 46 38
92 91 90 90 91 93 97 99 100 100 100 100 100 100 100 100 100 100 100 100 100 100 100 100 100 100 100 100 100 100 100 100 100 100 99 99 98 97 95 94 92 91 90 89 89 90 90 87 82 74 63 50 40 32 26 20 14 10 7 8 14 24 39 52 58 58 51 39 33 33 38 42 43 43 42 41 42 45 52 57 58 58 55 49 40 30
98 97 96 94 94 96 98 98 99 100 100 100 100 100 100 100 100 100 100 100 100 100 100 100 100 100 100 100 100 100 100 100 100 100 100 100 99 98 97 96 96 95 94 93 93 92 90 86 79 68 54 42 34 28 24 20 16 13 12 16 24 35 49 60 64 60 48 40 38 41 46 48 49 48 46 44 45 49 56 59 59 56 52 43 32 21
97 98 98 97 96 97 99 99 99 100 100 100 100 100 100 100 100 100 100 100 100 100 100 100 100 100 100 100 100 100 100 100 100 100 100 100 100 100 99 98 98 97 96 96 94 92 90 84 76 63 48 38 32 30 28 26 23 22 22 24 31 40 54 64 65 60 51 47 46 48 51 54 55 53 49 46 49 54 60 60 58 54 47 36 23 12
96 96 97 97 98 98 99 99 99 100 100 100 100 100 100 100 100 100 100 100 100 100 100 100 100 100 100 100 100 100 100 100 100 100 100 100 100 100 100 99 98 98 97 96 95 92 90 84 74 60 46 40 38 38 38 35 33 32 30 30 35 44 58 65 65 61 57 54 54 54 57 59 58 54 49 49 53 58 62 60 56 49 39 26 14 7
97 97 97 97 98 99 99 99 99 100 100 100 100 100 100 100 100 100 100 100 100 100 100 100 100 100 100 100 100 100 100 100 100 99 99 99 99 99 99 99 98 98 97 96 95 93 90 84 74 62 51 48 47 48 48 46 42 38 34 33 40 50 62 66 65 62 59 57 58 60 62 62 58 53 49 53 58 62 63 58 51 42 28 16 8 5
97 98 99 98 98 98 99 99 100 100 100 100 100 100 100 100 100 100 100 100 100 100 100 100 100 100 100 100 100 100 100 99 98 98 98 98 98 98 98 98 98 97 96 96 94 92 90 85 77 67 58 56 56 56 55 50 43 37 33 38 48 60 68 67 65 62 60 60 63 66 67 62 56 52 52 58 63 64 61 54 44 31 18 10 6 4
96 98 100 100 99 99 99 99 100 100 100 100 100 100 100 100 100 100 100 100 100 100 100 100 100 100 100 100 100 100 99 98 98 98 98 98 98 98 98 97 97 96 96 94 93 92 92 88 82 73 62 58 58 56 52 42 37 35 38 50 61 68 69 66 64 62 63 67 70 70 68 60 56 54 58 64 65 63 57 46 34 21 10 6 4 4
94 97 100 100 100 100 100 100 100 100 100 100 100 100 100 100 100 100 100 100 100 100 100 100 100 100 100 100 100 100 99 99 99 99 99 98 98 98 97 96 96 95 94 94 94 94 92 90 84 74 60 55 52 48 42 36 37 42 54 65 70 72 69 67 67 68 71 74 74 72 64 58 57 59 64 67 65 59 50 36 23 12 6 5 4 3
93 96 99 100 100 100 100 100 100 100 100 100 100 100 100 100 100 100 100 100 100 100 100 100 100 100 100 100 100 100 99 99 99 99 99 98 98 98 97 96 95 94 94 95 94 94 92 89 80 69 55 50 45 40 37 40 48 58 70 74 74 72 70 71 72 74 77 78 75 69 60 58 60 64 69 67 61 52 39 24 14 7 5 4 4 2
94 96 98 99 100 100 100 100 100 100 100 100 100 100 100 100 100 100 100 100 100 100 100 100 100 100 100 100 100 99 99 98 98 98 98 98 98 98 97 96 95 94 95 95 94 93 90 84 74 62 52 46 43 42 46 55 64 72 76 74 72 71 72 73 76 78 81 78 73 65 60 61 65 69 71 64 54 42 26 14 8 6 5 4 3 2
96 98 98 98 99 99 100 100 100 100 100 100 100 100 100 100 100 100 100 100 100 100 100 100 100 99 99 99 98 98 98 97 97 98 98 97 97 97 97 96 94 94 94 94 93 90 84 77 68 60 52 48 48 51 58 67 73 76 75 72 71 70 70 72 76 80 82 76 69 63 61 65 70 72 68 58 44 29 15 9 6 5 4 3 2 1
97 98 98 97 97 97 98 100 100 100 100 100 100 100 100 100 100 100 100 100 100 100 100 99 99 98 98 98 98 98 98 96 96 97 97 96 95 95 96 94 94 93 93 92 88 83 76 71 66 60 56 54 55 60 66 71 73 74 73 71 70 68 68 73 78 81 80 73 67 64 65 71 74 71 61 46 31 18 8 7 6 5 4 2 2 1
94 95 96 96 94 94 95 98 99 100 100 100 100 100 100 100 100 100 100 100 100 100 100 99 98 98 98 98 98 98 97 96 96 96 96 94 93 94 95 94 93 92 92 87 80 74 70 70 69 66 62 61 62 66 69 71 72 72 72 69 67 67 71 77 81 81 76 69 66 68 73 76 74 64 50 33 20 10 7 6 5 4 3 2 1 1
94 92 93 95 95 95 95 97 98 99 99 100 100 100 100 100 100 100 100 100 100 99 99 98 98 98 97 97 97 98 97 97 96 96 94 92 92 94 95 95 95 94 92 83 76 70 70 74 75 74 72 71 71 72 72 72 72 72 69 67 67 70 77 82 82 78 72 68 70 74 80 77 68 52 35 21 12 8 7 6 4 3 2 1 1 2
96 94 94 96 97 98 98 98 98 98 98 98 98 99 100 100 100 100 100 99 99 98 98 98 98 97 97 96 96 96 97 97 97 96 94 92 93 95 94 95 95 93 90 81 74 72 74 79 81 82 82 80 79 77 76 74 72 70 67 68 71 77 84 84 80 74 70 72 77 82 82 71 56 38 21 12 8 7 6 5 4 2 2 1 2 4
99 98 97 98 99 99 99 99 98 98 98 98 97 98 99 99 100 100 100 99 98 98 98 98 98 97 96 94 94 95 96 96 96 96 95 95 95 95 94 92 92 89 85 78 74 76 80 85 88 89 89 87 85 82 79 76 73 70 69 72 78 83 86 82 76 73 74 80 84 84 76 58 40 24 12 9 8 6 5 4 3 2 1 1 3 8
99 100 99 99 99 99 99 99 98 98 98 98 98 98 98 99 99 100 99 99 99 99 98 98 97 96 95 94 94 94 95 96 95 95 94 95 95 95 93 90 86 83 80 77 78 81 86 90 92 93 92 90 87 84 81 77 74 73 74 78 84 86 84 78 74 76 81 86 86 78 63 44 27 15 9 8 7 6 4 3 2 2 1 2 6 11
99 99 99 99 99 99 99 99 99 99 99 99 98 98 99 99 99 99 99 99 99 98 98 97 96 95 94 94 94 95 95 96 95 94 94 94 95 95 93 88 84 82 81 83 86 89 93 95 95 94 92 90 88 85 82 78 76 76 79 84 87 85 79 76 78 82 89 89 81 67 48 30 18 10 8 8 6 5 4 2 2 1 1 4 8 16
98 99 99 99 99 99 99 99 99 99 99 99 99 99 99 99 99 99 99 99 99 99 98 97 96 94 93 94 95 96 96 96 94 94 95 95 95 95 93 88 85 86 89 91 93 95 96 96 95 94 92 90 87 85 82 79 78 80 85 87 86 82 76 78 84 89 92 84 70 52 33 20 12 8 8 7 5 4 3 2 1 1 2 7 13 20
96 98 99 99 99 99 99 99 99 99 99 99 99 99 99 99 99 99 99 99 99 99 99 98 96 94 93 94 96 96 96 96 95 95 95 96 96 96 94 90 90 92 95 96 96 96 96 96 94 93 91 89 87 85 82 81 82 85 88 87 83 79 78 85 90 92 88 74 57 38 21 13 10 8 8 6 4 3 2 2 1 2 4 11 18 24
94 96 98 98 98 98 99 99 98 98 99 99 99 99 99 99 99 99 99 98 98 98 98 98 96 95 94 94 96 97 96 96 96 95 96 96 97 97 96 94 95 96 97 97 97 96 96 95 94 92 90 89 87 85 84 84 87 88 88 84 81 80 85 90 92 89 79 61 42 26 14 10 8 8 6 5 4 3 2 1 1 3 8 16 23 28
93 94 96 97 98 98 98 98 98 98 98 98 98 99 99 99 99 98 98 98 98 98 98 98 97 96 95 95 96 96 96 96 96 96 96 96 97 97 96 96 97 97 97 96 96 96 95 94 93 92 90 89 87 86 86 88 89 88 86 82 82 86 92 93 90 82 66 47 30 18 10 9 8 7 6 4 3 2 1 1 2 6 12 20 27 32
93 94 94 96 96 97 98 98 98 98 98 98 98 98 98 98 98 98 98 98 98 98 98 98 98 97 96 95 95 96 96 96 96 96 95 96 96 96 96 97 97 96 96 96 96 96 95 94 93 92 92 90 88 88 88 90 89 86 84 83 87 91 94 92 84 70 51 34 21 13 10 8 8 6 4 3 2 2 1 2 4 10 17 24 30 34
92 93 93 94 95 96 96 97 97 98 98 98 98 98 98 98 98 98 98 98 98 98 98 98 98 98 97 96 96 96 96 96 96 95 94 96 96 96 96 97 97 96 96 96 96 96 96 94 94 93 93 92 90 90 90 89 87 85 84 87 91 94 94 86 73 56 37 24 15 10 9 8 7 5 4 3 2 1 1 3 8 14 22 28 33 37
89 91 92 92 93 94 95 96 96 96 97 97 98 98 98 98 97 97 97 98 98 98 98 98 98 98 98 96 96 96 96 96 96 96 96 96 97 97 97 97 97 97 96 96 97 97 97 95 94 94 94 93 92 90 89 87 86 85 86 90 93 93 90 76 59 41 26 17 12 10 9 8 6 4 3 2 2 1 2 5 11 18 26 32 36 40
84 89 90 90 92 92 94 94 95 96 96 96 96 97 98 97 97 97 97 98 98 97 97 98 98 98 98 97 96 96 96 95 95 96 96 96 96 97 97 97 97 97 96 96 96 96 96 96 94 94 93 92 90 89 87 86 86 87 90 94 94 92 82 63 44 28 18 13 10 9 8 7 5 4 3 2 1 2 3 8 16 24 31 36 40 42
77 84 88 90 90 92 92 94 95 95 96 96 96 96 97 97 97 97 98 98 97 97 97 97 98 98 98 97 97 97 96 95 95 96 96 96 96 96 97 97 97 97 96 96 96 96 96 95 94 92 92 91 90 87 85 86 88 91 94 94 93 86 70 48 32 20 14 11 10 8 7 6 4 3 2 2 2 2 6 12 20 28 34 38 42 44
69 79 85 88 90 92 92 94 95 96 96 96 96 96 97 97 97 98 98 98 98 97 97 97 97 97 97 97 97 96 95 95 95 96 96 96 96 96 96 96 96 96 96 95 95 95 95 94 92 90 90 90 88 87 86 89 92 94 94 93 88 75 54 35 23 15 11 10 9 8 6 4 3 2 2 1 2 4 9 17 24 31 36 40 42 46
61 74 83 87 90 92 93 94 95 96 96 96 96 96 96 97 97 97 97 97 97 97 97 97 97 97 97 97 96 96 95 95 95 96 96 96 96 96 96 96 96 96 95 94 94 94 93 92 90 89 88 88 87 88 89 92 94 94 94 90 78 61 40 26 18 12 10 10 8 7 5 4 3 2 2 1 3 7 14 22 28 34 38 40 44 47
48 66 79 85 90 92 93 94 95 96 96 96 97 97 97 97 97 97 97 97 97 97 97 97 97 97 97 97 96 96 95 95 96 96 96 96 96 96 96 95 95 94 94 92 92 92 91 90 88 88 87 87 87 88 92 94 94 94 92 84 66 44 27 20 14 11 10 8 8 6 4 3 2 2 1 2 5 11 19 26 31 35 38 42 46 49
36 54 72 82 88 92 94 94 95 96 96 96 96 97 97 97 97 96 96 96 96 97 97 97 97 97 97 97 96 96 95 94 95 95 96 95 95 95 95 94 94 93 92 91 90 90 88 88 88 88 88 88 89 92 94 95 95 93 89 74 52 32 19 14 12 10 10 8 6 5 3 3 2 2 1 3 8 16 26 30 33 36 38 42 47 51
31 47 65 78 87 92 94 94 94 95 95 96 96 96 97 97 97 96 96 96 96 96 97 97 97 96 96 96 96 96 95 95 95 96 95 95 95 94 94 93 92 92 90 90 89 88 86 86 87 88 89 90 92 94 95 95 94 90 81 60 39 23 14 12 11 10 8 7 6 4 3 2 2 2 2 5 12 22 31 34 35 37 39 43 48 52
33 46 60 74 86 93 96 95 94 94 94 94 94 95 96 96 96 97 96 96 96 96 96 96 96 96 96 96 96 96 96 96 96 96 95 95 94 94 93 92 92 90 89 88 88 87 86 87 88 89 91 94 95 96 96 95 92 84 68 43 26 16 10 11 10 10 8 6 5 3 2 2 2 2 2 8 16 27 35 37 38 40 41 44 49 54
37 48 60 74 87 95 96 96 95 94 93 93 93 93 94 95 96 96 96 96 96 96 96 96 96 96 96 96 96 96 96 96 96 95 95 94 94 94 93 92 90 90 88 87 86 86 86 88 90 92 95 96 96 96 95 94 88 74 52 30 18 12 10 11 10 9 7 6 4 3 2 2 2 2 4 10 21 31 38 40 41 42 44 48 53 58
42 53 62 79 91 97 97 96 95 94 92 92 92 92 93 94 95 96 96 96 96 96 96 96 96 95 95 95 95 95 95 95 95 95 94 94 93 93 92 91 90 89 88 87 86 87 88 90 92 94 96 96 96 95 95 91 79 61 38 22 14 11 10 10 10 8 6 4 3 2 2 2 2 3 6 14 25 34 40 42 42 45 49 54 59 63
46 57 68 86 94 98 97 96 95 94 92 92 92 92 92 93 94 95 96 96 96 96 96 96 95 95 95 95 95 95 95 95 94 94 94 93 93 92 92 90 90 89 88 87 88 88 90 92 93 95 96 96 95 95 94 87 68 45 25 15 11 10 10 10 8 7 5 4 3 2 2 2 2 4 8 19 29 38 42 43 44 48 54 60 65 68
49 62 76 92 97 98 97 96 96 95 94 92 92 92 92 92 93 94 95 95 95 95 95 95 95 95 95 95 95 95 95 94 94 94 93 93 92 92 91 90 90 89 88 88 88 90 92 93 95 96 96 96 95 94 92 76 54 31 16 11 10 10 10 9 8 6 4 3 2 2 2 2 3 6 12 24 33 40 44 45 48 53 60 66 70 72
55 71 85 94 97 97 97 97 96 96 95 94 93 92 92 92 92 93 94 94 95 95 95 95 95 95 95 94 94 94 94 94 94 93 93 92 92 92 90 90 89 88 88 88 89 90 92 94 95 96 96 95 95 92 86 63 40 21 12 10 10 10 10 8 6 5 4 3 2 2 2 2 4 8 16 28 37 43 46 48 52 59 67 72 74 74
66 82 93 96 97 97 97 97 97 96 96 95 94 92 92 91 91 92 93 94 94 94 95 94 94 94 94 94 94 94 94 94 94 93 93 92 92 92 90 90 89 88 88 89 90 92 94 95 95 96 96 95 94 88 73 48 28 14 10 10 10 10 10 8 6 4 3 2 2 2 2 3 6 12 22 32 40 45 48 52 59 67 73 76 76 76
76 90 96 97 97 97 97 97 96 96 96 96 95 94 92 91 90 90 91 92 93 94 94 94 94 94 94 94 94 94 94 93 93 93 92 92 92 92 91 90 90 90 90 90 92 94 96 96 96 96 95 95 92 81 60 36 21 12 10 10 10 10 8 6 5 4 3 2 2 2 2 4 8 15 25 35 42 46 51 58 66 74 78 78 78 76
79 92 96 96 96 96 96 96 96 96 96 96 96 95 94 92 90 90 90 90 92 92 92 93 93 93 93 93 93 93 93 93 93 92 92 92 92 92 93 93 93 93 93 94 95 96 96 96 96 95 95 94 86 70 44 26 15 10 10 11 10 8 7 5 4 3 2 2 2 2 2 5 10 18 28 37 43 48 55 64 72 78 80 80 79 77
78 90 95 95 96 96 96 96 96 96 96 96 96 96 95 94 92 90 89 89 90 90 90 92 92 92 92 92 92 92 92 93 93 94 94 94 95 95 95 95 95 96 96 96 96 96 96 96 96 95 94 91 79 60 35 20 12 10 10 11 10 8 6 4 4 3 2 2 2 2 3 6 12 22 32 39 44 51 60 69 77 82 83 82 81 78
76 90 95 95 95 95 95 95 95 95 96 96 96 96 96 95 93 92 90 88 88 88 88 90 90 90 92 92 92 92 93 94 94 94 95 95 95 95 95 96 96 96 96 96 96 96 96 96 95 94 92 86 71 51 30 17 11 10 11 10 8 7 5 4 3 2 2 2 2 2 4 8 16 26 36 42 47 53 62 72 79 83 85 85 83 80
74 88 95 95 94 94 94 94 94 94 95 95 95 95 96 95 94 93 91 90 88 88 88 89 89 89 90 90 92 92 94 94 94 94 94 95 95 94 95 95 96 96 96 96 96 96 96 95 95 93 89 78 62 42 24 15 12 10 10 9 8 6 4 4 3 2 2 2 2 3 4 10 19 29 39 43 48 54 63 73 80 84 86 86 85 82
Wind_Speed
21 21 22 23 25 28 31 32 31 29 26 24 23 23 22 22 23 24 25 27 28 29 30 31 32 32 32 31 30 29 29 30 32 35 37 39 40 41 41 39 35 31 27 24 21 20 21 23 24 25 26 27 27 27 27 27 26 26 25 25 24 24 23 23 23 23 23 23 23 24 25 26 27 28 28 29 29 29 29 30 31 32 34 36 38 39
19 20 22 23 24 25 27 29 30 28 26 24 23 23 23 24 25 26 27 29 30 31 31 32 32 33 33 32 30 29 29 30 31 33 36 38 40 41 39 36 31 26 23 21 20 22 25 27 27 28 27 27 26 26 26 26 25 25 25 24 24 24 23 23 23 23 23 23 24 25 26 27 27 28 28 28 28 29 29 30 31 33 35 37 38 40
17 18 20 23 24 25 25 27 28 28 26 24 23 23 24 25 27 28 30 31 31 31 32 32 33 33 34 33 32 31 31 31 32 34 35 37 39 38 36 32 27 24 22 22 23 26 29 29 29 28 27 25 25 25 25 25 25 25 24 24 24 24 24 23 23 23 23 24 25 25 26 27 27 27 27 28 28 28 29 31 32 34 36 37 39 40
18 18 19 20 23 24 26 27 28 29 28 26 25 24 24 26 28 30 31 32 32 32 32 32 33 34 34 34 34 33 33 33 33 34 35 36 36 35 32 29 27 26 25 26 27 29 31 31 30 28 26 24 24 24 25 25 25 25 24 24 24 24 24 23 23 23 24 24 25 25 26 26 26 26 27 27 28 29 30 31 33 35 37 38 39 39
20 20 19 19 20 22 25 27 30 31 32 31 29 27 26 27 29 31 32 33 33 33 33 33 34 34 35 35 35 35 35 35 34 34 34 34 34 32 31 30 30 31 31 31 32 32 32 31 29 26 24 23 23 24 25 25 25 24 24 24 24 24 23 23 23 24 24 24 24 25 25 25 25 26 26 27 28 29 31 32 34 36 37 38 39 39
20 21 21 20 19 19 21 25 29 32 34 34 33 31 30 30 31 33 34 35 35 34 34 34 34 34 35 36 36 36 36 35 35 34 33 33 32 32 33 34 36 37 36 35 35 34 32 30 27 24 23 22 23 24 24 24 24 24 23 23 23 23 23 23 23 24 24 24 24 24 24 24 24 25 26 28 29 30 32 33 35 36 37 38 38 38
19 20 20 21 20 19 19 20 24 28 32 33 33 33 33 34 34 35 36 37 37 36 35 35 34 34 35 36 37 37 37 36 35 34 33 33 33 35 37 38 39 39 38 37 35 33 31 28 24 22 21 21 22 23 23 23 22 22 22 22 22 22 22 23 23 24 23 23 22 22 23 23 24 25 27 29 30 31 32 34 35 36 37 37 37 37
18 18 19 20 20 20 19 19 20 22 25 28 31 32 35 36 37 37 38 39 39 38 37 36 35 35 35 36 37 37 37 36 36 36 36 36 37 38 39 39 38 37 37 36 34 32 29 25 22 20 20 21 22 21 21 20 20 21 21 22 22 22 23 23 23 23 23 22 21 21 22 23 25 27 29 30 31 32 33 34 35 36 36 36 36 36
18 18 18 19 19 20 20 19 20 20 21 24 26 30 34 36 38 38 39 40 40 39 38 37 36 36 36 36 37 37 38 38 38 38 38 39 39 39 38 36 35 34 34 34 33 31 28 24 21 19 19 20 20 19 19 19 21 22 23 24 24 24 24 24 24 23 22 21 21 21 22 24 27 29 30 31 31 32 33 34 35 35 35 35 35 35
20 19 19 19 20 20 20 20 21 21 22 23 25 28 31 34 36 37 38 39 40 39 38 37 37 37 37 38 38 38 38 38 38 38 37 37 36 36 35 34 33 33 33 33 32 31 28 23 20 18 18 18 18 18 20 21 23 24 26 27 28 27 26 25 24 23 22 21 21 22 25 27 30 31 31 31 31 32 33 34 35 35 34 34 34 34
21 21 21 21 21 21 22 22 22 23 24 24 25 27 29 32 34 36 37 38 38 39 39 39 39 39 39 40 39 39 38 37 36 35 34 33 33 33 33 33 33 33 33 33 33 31 28 23 19 17 17 18 19 21 22 23 25 26 28 30 30 29 28 26 24 23 22 22 23 26 28 30 31 31 31 30 31 32 33 34 34 33 33 33 33 33
22 23 23 23 23 22 23 24 24 25 25 25 25 27 29 31 33 35 37 38 40 41 41 42 42 42 41 40 39 38 37 36 34 32 32 31 32 32 33 33 34 34 34 33 33 31 26 21 18 17 19 20 22 23 24 25 26 27 29 30 30 29 27 25 23 23 23 24 26 29 31 32 31 30 29 29 31 32 32 33 32 32 32 32 32 32
22 23 24 24 24 24 24 24 24 25 25 25 26 27 29 31 33 35 38 40 42 43 43 44 45 44 42 40 38 37 36 34 33 32 31 31 31 31 32 32 32 32 31 31 29 27 23 20 19 19 21 23 24 24 24 25 26 28 29 29 29 28 26 24 23 23 24 26 29 31 32 31 30 28 28 29 30 31 32 31 31 31 30 31 31 31
23 23 23 23 24 24 24 24 24 24 25 25 26 27 29 31 34 37 40 41 42 42 42 45 46 44 41 39 38 37 35 33 32 31 30 30 29 29 29 29 29 28 27 26 25 23 20 20 20 21 22 23 23 23 24 25 26 27 28 28 27 25 24 23 23 24 26 29 31 32 31 29 27 27 28 29 30 31 30 30 29 29 29 30 30 30
24 23 22 21 21 22 23 23 24 24 24 25 26 27 28 32 36 39 41 41 41 41 42 44 45 42 40 38 37 36 34 33 32 31 30 29 28 28 27 27 26 25 24 23 22 21 20 21 22 23 22 22 22 22 23 24 26 26 26 25 25 24 24 24 25 26 29 31 32 31 28 26 26 27 28 29 30 29 29 28 28 28 29 29 29 29
24 23 22 20 18 18 19 21 22 22 23 23 24 26 29 33 37 39 39 38 37 38 41 42 42 40 38 37 35 34 34 34 34 33 31 30 29 28 28 27 26 24 23 22 21 21 22 23 24 23 22 21 21 22 23 24 25 25 24 24 24 24 24 25 26 28 31 32 31 28 26 25 25 27 28 29 28 28 27 27 27 27 28 28 28 28
23 23 23 22 18 15 14 17 19 20 21 22 23 26 30 34 37 37 36 34 34 36 38 39 39 38 36 35 34 34 34 34 34 33 31 29 29 29 28 27 26 24 24 23 22 23 24 24 24 23 22 21 21 22 23 24 24 24 24 24 24 25 26 27 29 31 32 31 28 25 24 24 26 27 28 27 27 26 26 26 26 27 27 27 27 26
22 22 22 23 20 15 12 13 15 17 19 21 24 27 31 35 37 37 35 33 33 34 35 36 36 36 35 34 34 33 32 32 31 30 29 28 27 28 27 27 25 24 24 24 23 24 25 25 24 22 21 21 21 22 23 23 23 23 24 24 25 26 28 30 31 32 31 28 25 23 23 24 26 27 26 26 25 25 25 25 25 26 26 25 25 23
22 21 21 21 20 17 12 10 11 14 17 21 24 28 32 35 37 36 34 32 32 32 34 34 34 34 32 31 31 30 29 29 29 28 27 25 24 24 24 24 23 23 23 23 24 24 24 24 23 21 20 21 21 22 22 23 23 23 24 24 26 28 30 32 32 31 28 24 22 22 23 25 25 26 25 24 24 23 24 24 24 24 24 24 23 21
22 21 20 19 18 16 12 9 10 13 17 21 25 29 32 33 33 32 30 29 29 30 31 30 29 28 27 27 27 27 27 26 27 27 26 23 21 20 21 21 21 22 23 23 23 23 23 23 22 21 21 21 21 22 22 23 23 23 24 25 27 30 32 32 31 28 24 22 21 22 24 24 25 24 23 22 22 23 23 23 23 23 23 22 20 17
21 21 20 19 17 13 11 9 9 11 16 21 25 29 31 31 29 28 26 26 27 26 25 23 22 23 23 25 25 25 25 25 26 27 24 20 18 18 20 21 22 23 23 23 23 23 23 23 23 22 22 22 22 22 22 22 22 23 25 27 29 31 32 31 28 24 21 20 21 22 23 24 23 22 21 21 21 22 22 22 22 22 22 20 17 14
20 21 20 18 16 13 11 11 10 11 13 17 22 26 28 28 26 25 25 25 23 21 18 18 19 20 22 23 24 24 24 25 26 26 23 19 18 19 21 22 24 25 25 25 24 24 24 24 24 24 23 23 22 22 22 22 23 24 26 29 31 31 30 27 23 20 19 20 21 22 23 22 21 20 20 20 21 21 21 21 21 21 20 18 14 11
20 20 20 18 16 14 14 14 13 13 12 12 14 18 22 23 23 23 23 22 19 16 15 16 18 19 21 22 23 23 24 26 27 27 25 23 23 23 23 24 25 26 26 25 25 25 25 26 26 25 24 23 22 22 22 23 24 26 28 30 31 30 27 23 20 18 19 20 21 22 21 20 19 19 19 19 20 20 20 20 20 19 18 15 12 9
19 20 19 19 18 17 17 17 17 16 16 14 13 13 16 18 20 22 22 20 17 15 15 16 17 19 20 21 22 23 25 26 27 29 30 30 29 27 26 25 25 26 26 25 26 26 27 27 27 26 24 23 22 22 22 24 25 27 29 30 29 26 22 19 17 18 19 20 21 21 20 18 18 18 18 19 19 19 19 19 18 17 15 12 9 7
20 20 20 20 20 20 20 20 21 20 20 19 18 16 16 18 20 22 22 20 17 15 15 16 17 18 19 21 22 22 23 25 28 31 35 36 34 30 27 26 26 26 26 26 26 27 28 28 28 26 24 22 22 22 23 25 26 28 29 28 25 21 18 17 17 18 19 20 20 19 18 17 17 17 18 18 18 18 18 17 16 15 13 10 7 6
18 20 21 21 21 22 23 24 24 24 24 24 23 22 21 21 22 23 22 20 17 16 16 16 17 17 18 20 20 20 21 24 27 32 36 37 34 31 28 28 27 27 28 28 28 29 29 29 27 25 23 22 22 23 24 26 27 28 27 24 21 18 16 16 17 19 20 19 18 17 16 16 16 17 17 17 17 17 16 16 14 12 10 7 6 6
14 16 19 20 21 22 23 25 26 27 27 27 27 26 25 25 25 24 22 20 18 17 17 17 16 16 17 18 18 18 19 22 25 29 33 34 32 30 29 29 30 30 30 29 29 29 28 27 25 23 22 22 23 24 26 27 27 26 24 20 17 16 16 16 18 19 19 18 17 15 15 15 15 16 16 16 16 15 15 14 12 10 7 5 5 6
11 13 15 17 18 20 21 23 25 27 28 28 28 28 27 26 25 23 21 20 19 19 19 18 17 17 17 18 18 17 17 19 22 26 29 30 30 29 30 31 31 30 30 28 27 26 25 24 23 23 23 23 25 26 27 27 26 23 20 17 15 15 16 17 19 19 17 16 15 14 14 14 15 15 15 15 14 14 13 12 10 7 5 4 4 6
10 11 13 14 16 17 18 20 22 24 26 27 28 28 27 26 25 23 22 21 21 21 20 19 18 18 19 19 19 19 19 19 21 23 26 28 29 30 31 31 31 29 27 26 25 24 23 23 23 23 24 25 27 27 27 25 22 19 17 15 15 15 17 18 18 17 16 14 14 13 13 14 15 15 14 14 13 12 11 10 7 5 3 3 4 6
11 11 12 13 14 15 16 17 19 21 23 25 26 26 26 26 25 24 23 22 22 22 22 21 20 20 20 21 22 22 21 21 22 24 26 28 29 30 31 30 29 27 25 24 23 23 23 24 24 25 26 27 27 26 24 21 18 16 15 15 15 16 17 18 17 15 14 13 13 13 13 14 14 14 13 12 12 11 9 8 5 3 1 2 4 6
11 11 11 12 13 14 15 16 18 19 21 22 23 24 24 25 24 24 23 23 23 23 23 22 21 21 21 23 24 24 23 23 24 26 28 29 30 30 30 29 27 26 25 25 24 24 25 26 26 27 27 26 25 23 20 17 16 15 14 15 16 17 17 16 15 13 13 12 12 12 13 13 13 13 12 11 10 9 8 6 3 1 2 3 5 6
12 11 11 12 12 13 14 15 17 18 20 21 21 21 22 22 23 23 23 23 24 24 23 22 21 21 21 23 25 26 25 25 26 28 29 30 30 30 29 28 27 27 27 27 27 27 27 28 28 27 25 24 22 19 17 15 15 14 15 15 16 17 16 15 13 12 12 11 11 12 12 12 12 11 10 9 8 7 6 4 2 1 2 4 5 6
12 12 12 12 13 13 14 14 15 16 18 19 20 21 21 21 22 22 23 23 23 23 22 21 21 20 21 22 24 26 26 26 26 28 29 30 30 30 29 29 28 28 29 29 29 29 28 28 27 25 22 20 18 17 15 15 15 15 15 16 16 16 14 13 12 11 11 10 11 11 12 11 11 10 9 8 7 5 4 2 0 1 3 4 5 6
13 12 12 13 13 13 13 14 14 14 15 17 19 21 22 22 22 22 23 23 23 23 22 21 20 20 20 21 23 25 26 26 26 27 29 29 29 29 30 29 29 29 29 29 28 28 27 25 23 21 19 18 17 16 15 15 15 15 15 16 15 14 12 12 11 10 10 10 10 11 11 10 9 8 7 7 5 4 2 1 1 2 3 4 4 5
13 13 12 13 13 14 14 14 13 13 13 14 16 18 20 22 23 23 23 24 23 23 22 22 21 21 20 20 21 23 25 25 25 26 28 29 29 30 30 30 29 29 28 27 26 25 23 22 20 18 17 17 17 16 16 16 15 15 15 15 14 12 11 11 10 9 9 9 10 10 10 9 8 7 6 5 4 2 1 1 1 2 3 3 3 3
14 13 12 12 13 13 14 14 13 13 13 13 14 15 18 20 22 23 24 24 24 24 23 23 23 22 22 21 21 21 23 25 26 27 29 30 30 30 30 29 28 27 26 25 23 22 20 19 18 17 17 17 18 17 16 16 15 15 15 14 13 11 10 10 9 9 8 9 9 9 9 8 7 6 5 4 3 1 1 1 2 2 2 2 2 2
14 13 13 12 12 13 14 14 14 13 13 13 13 14 15 17 20 22 24 24 24 24 24 24 24 24 23 23 23 23 25 27 28 29 30 30 29 29 28 27 26 25 24 23 21 20 19 19 18 18 18 18 18 18 17 15 15 15 14 13 11 10 10 9 8 8 8 8 9 9 8 6 5 4 4 3 1 1 1 2 2 2 2 2 1 1
14 13 13 12 12 13 14 14 14 14 14 14 14 14 14 15 18 20 22 23 24 24 24 24 24 25 25 25 25 26 26 27 28 28 28 28 27 26 26 25 24 23 23 22 21 20 20 19 18 18 18 18 18 17 16 15 15 15 13 12 11 10 9 8 7 7 8 8 8 7 6 5 4 3 2 1 1 1 2 2 2 3 3 2 2 3
14 13 13 12 12 13 14 15 15 15 15 15 15 15 15 15 16 18 20 22 23 24 24 24 24 25 25 25 25 26 26 26 26 26 25 25 24 24 24 24 23 23 22 22 21 21 20 20 19 19 19 18 17 15 14 15 15 14 12 11 10 9 8 7 7 7 7 8 7 6 5 4 3 2 1 1 1 2 2 2 3 3 3 3 4 4
14 13 13 13 13 14 15 16 16 16 15 15 15 15 15 15 16 17 18 20 21 22 23 23 23 24 24 24 24 24 24 24 24 24 23 23 23 23 23 23 23 22 22 22 21 22 22 21 21 20 19 17 16 15 14 15 14 13 12 11 10 9 8 7 6 7 7 7 6 5 4 3 2 1 1 1 2 3 3 3 3 3 3 4 4 4
14 14 13 13 14 16 17 17 17 17 16 16 16 16 16 16 16 16 17 18 19 20 21 22 22 23 23 23 23 23 23 23 23 23 23 23 24 24 24 23 23 22 22 22 22 23 23 22 21 19 18 16 14 14 15 15 14 12 11 10 9 8 7 6 6 7 7 6 5 4 3 2 1 1 1 2 3 3 3 3 4 4 4 4 4 4
15 13 13 14 16 17 18 18 18 17 17 17 16 16 16 16 16 16 16 17 18 19 20 20 21 22 22 23 23 23 23 23 23 23 24 24 24 24 24 23 23 22 22 23 23 24 23 22 20 19 17 15 14 14 15 14 13 12 11 10 9 8 7 6 6 6 6 5 4 3 2 1 1 2 2 3 4 4 4 4 4 4 3 3 3 4
15 13 13 14 17 18 19 19 19 18 17 17 17 16 16 16 15 16 16 17 18 18 19 19 20 20 21 22 23 23 23 23 24 24 24 24 24 24 24 23 23 23 24 24 24 24 23 22 20 18 15 14 14 15 15 14 13 12 11 10 8 7 6 6 6 6 5 4 3 2 1 1 2 3 4 4 5 4 4 4 4 3 3 3 3 4
15 13 14 15 17 19 20 20 19 18 17 17 17 16 16 16 15 15 16 17 17 18 18 19 19 20 21 22 23 23 24 24 24 24 24 24 24 24 23 23 24 24 25 26 26 25 24 22 19 17 15 14 14 15 15 14 13 12 11 10 8 7 7 6 6 6 5 3 2 2 2 2 3 4 5 5 5 5 4 4 3 3 3 3 4 5
14 14 15 17 19 21 22 22 20 19 17 17 16 16 16 15 15 15 16 16 18 19 19 20 21 21 22 23 23 24 24 24 24 23 23 23 23 23 23 24 25 26 27 27 26 25 23 21 19 16 15 15 15 16 15 14 13 12 11 9 8 7 7 7 6 5 4 3 2 2 2 3 4 5 6 6 6 5 5 4 3 3 3 4 5 7
14 14 17 19 21 23 23 23 21 19 18 17 17 16 16 15 15 15 15 16 18 19 20 21 22 23 23 24 24 24 23 23 22 22 22 22 22 23 23 24 25 26 27 27 26 24 22 20 18 16 15 16 16 16 15 14 13 12 11 9 8 7 7 7 6 5 4 3 3 3 3 4 5 6 7 7 7 6 5 4 3 3 4 5 6 8
16 17 19 21 22 23 24 24 22 21 19 18 17 16 16 15 15 15 15 16 17 19 20 21 22 23 23 23 23 23 22 21 21 21 21 21 21 22 22 23 24 25 25 25 24 22 20 19 17 17 17 18 18 17 16 14 13 12 11 9 8 8 7 6 5 4 4 4 4 4 4 5 6 7 8 8 7 6 5 4 4 4 5 6 7 8
17 18 19 21 22 24 25 25 23 22 20 19 18 17 17 16 15 15 15 16 17 18 19 20 21 21 21 22 21 20 20 20 20 20 20 20 20 20 21 21 22 23 23 22 21 20 19 18 18 18 19 20 19 18 16 15 13 12 11 9 8 8 7 6 5 5 4 4 5 5 5 6 7 8 8 8 8 7 6 5 5 5 5 6 7 8
19 19 20 21 23 24 25 25 25 23 21 20 19 18 18 17 16 15 15 15 16 17 18 18 18 19 19 19 19 19 19 20 20 20 19 19 18 19 19 20 20 21 21 21 20 19 18 18 18 19 20 20 19 18 17 15 13 12 11 10 9 8 7 6 6 5 5 5 5 6 6 7 8 9 9 9 8 7 6 6 5 6 6 7 8 8
22 21 21 22 23 24 26 26 26 24 23 21 20 19 19 18 17 16 16 16 16 16 16 16 16 17 17 18 19 20 22 22 20 18 17 18 18 18 19 19 20 21 21 20 19 18 18 18 19 20 20 20 19 18 17 15 13 12 11 10 9 8 8 7 6 6 6 6 6 7 7 8 9 10 10 9 9 8 7 7 6 7 7 7 8 8
24 23 23 23 23 24 26 27 27 26 25 23 21 20 20 19 19 18 17 17 17 16 16 16 16 16 17 18 20 23 24 22 18 15 15 17 18 18 19 19 20 20 20 19 19 18 17 18 19 21 21 20 18 17 17 15 14 12 11 11 10 9 8 7 7 6 7 7 7 8 8 9 10 10 10 9 9 8 8 7 7 7 7 8 8 8
Wind_Direction
227 227 227 228 230 230 229 223 217 212 209 210 213 216 218 222 226 227 227 225 223 221 219 216 213 211 210 210 211 213 216 220 224 227 229 231 233 236 238 241 243 245 245 247 251 255 256 255 255 256 260 266 272 278 282 285 289 292 294 294 293 292 290 290 290 292 295 298 301 303 304 305 305 304 304 305 305 306 307 308 310 313 315 316 317 317
223 224 226 228 230 231 228 221 217 216 216 216 217 218 219 222 223 223 222 221 222 222 220 217 214 212 211 212 213 216 219 223 227 230 233 235 237 239 241 242 242 242 241 244 248 250 250 250 252 256 262 269 277 283 286 288 290 292 292 291 289 288 287 288 289 292 295 298 301 302 303 303 303 303 303 303 304 305 307 309 312 314 316 316 317 317
215 218 220 224 228 229 227 222 220 220 220 218 218 218 219 221 221 220 219 219 221 222 221 219 216 215 214 214 216 219 224 228 231 234 235 236 236 237 238 238 236 235 235 238 242 245 246 249 252 257 263 271 278 283 286 288 288 289 288 287 286 285 285 286 288 292 295 298 300 301 302 302 302 302 302 303 304 305 308 310 313 315 316 316 317 318
213 214 215 219 223 227 228 226 223 221 219 216 216 217 219 219 219 219 219 221 222 222 221 220 219 218 217 217 219 222 227 231 235 237 236 235 234 233 233 230 228 227 228 231 236 240 243 247 251 257 263 270 275 279 282 284 284 284 284 283 283 283 284 286 289 292 295 297 299 300 301 301 301 302 302 303 305 307 309 312 314 315 316 316 317 318
216 215 214 214 218 223 227 227 225 221 217 215 215 216 218 219 219 219 221 222 223 223 223 222 222 221 220 220 221 224 228 233 236 237 236 233 231 228 226 224 223 224 225 228 232 236 241 246 250 256 262 267 272 276 278 279 280 280 280 280 281 282 284 287 290 292 294 296 297 298 299 300 301 301 302 304 306 308 311 313 314 315 315 316 318 319
221 220 218 215 214 217 223 226 224 221 218 217 217 218 220 221 221 221 221 221 223 224 224 224 224 224 223 222 224 226 229 232 234 234 232 228 225 223 222 223 224 226 227 229 232 236 241 245 250 255 261 266 270 273 274 275 276 277 278 280 281 283 286 289 291 293 293 295 296 297 298 299 301 302 304 306 308 310 312 313 314 315 315 317 318 320
224 225 225 221 217 216 220 225 226 224 222 221 221 221 222 223 224 224 222 222 223 225 225 226 226 225 224 224 225 227 229 230 230 228 224 221 219 220 222 226 229 231 232 233 236 239 242 246 250 255 260 265 268 270 271 272 275 277 279 281 283 286 289 291 293 293 293 294 295 296 298 299 301 304 305 307 309 310 312 313 314 314 316 317 319 321
224 227 228 227 223 220 220 225 228 229 228 227 225 224 224 225 226 226 226 226 226 227 227 226 226 225 224 224 225 226 226 225 223 221 218 217 218 221 226 230 234 236 236 237 238 240 242 245 249 254 260 264 266 267 269 272 275 278 281 283 286 288 291 293 294 294 294 294 294 296 298 301 304 306 307 308 309 310 311 312 313 314 316 318 319 321
220 222 226 228 227 225 224 226 229 232 233 233 232 229 227 227 228 228 228 229 229 229 228 227 225 224 224 223 223 223 222 221 219 218 217 217 220 224 230 234 238 239 239 238 239 239 241 243 247 253 259 262 263 264 266 270 274 279 282 285 287 289 291 293 295 295 295 294 294 296 300 303 306 307 307 307 308 310 311 312 313 315 316 318 320 322
219 219 220 224 227 227 225 226 229 231 233 235 237 236 234 232 231 230 230 231 231 230 228 226 225 224 224 223 221 220 219 218 217 218 218 220 224 229 234 238 239 239 239 238 238 238 239 241 245 252 257 259 259 260 262 266 271 277 281 284 286 287 290 292 293 294 294 294 295 299 303 305 306 307 306 307 308 309 310 312 313 315 317 319 321 324
218 219 219 220 223 225 224 225 226 229 231 234 237 239 240 239 236 234 233 233 232 230 227 225 224 224 224 222 220 218 216 216 217 219 222 226 231 235 239 241 240 239 238 238 238 239 239 240 244 251 255 256 256 258 260 264 270 275 278 280 282 285 287 289 290 290 291 293 297 301 304 306 306 305 305 306 307 308 310 312 313 315 318 320 323 325
216 217 218 219 220 222 223 223 224 227 230 232 236 238 240 241 240 238 236 235 234 231 227 224 222 222 221 219 217 216 216 218 221 225 230 235 240 242 243 243 241 239 238 238 239 239 240 241 246 252 256 256 257 259 263 266 270 273 274 276 279 282 285 286 286 287 290 294 299 303 305 305 305 304 304 305 307 308 310 312 314 316 319 321 324 327
219 217 216 217 218 219 221 222 225 227 229 232 236 239 240 241 241 240 238 236 234 230 225 220 217 217 216 215 215 216 218 222 227 234 239 244 246 247 245 243 240 239 238 239 241 241 243 248 254 259 261 261 262 264 267 269 270 270 271 273 276 280 282 283 284 287 292 298 302 305 305 304 303 303 304 305 307 308 311 313 315 317 320 323 326 328
224 222 219 216 215 216 219 221 223 226 229 232 235 239 242 243 243 240 236 232 229 225 219 214 212 212 212 213 215 218 222 227 234 240 246 249 249 246 243 240 238 238 239 240 242 245 250 256 262 265 266 267 268 268 269 268 267 267 269 272 276 279 281 282 285 290 295 300 303 304 304 302 302 302 303 305 307 309 311 313 316 319 322 325 327 329
224 226 225 222 218 215 216 219 222 226 230 233 236 240 243 244 241 237 231 225 220 215 211 208 208 208 210 213 217 222 229 236 242 248 251 251 248 243 238 236 235 236 238 240 243 248 255 260 264 266 267 268 268 267 265 264 265 266 268 272 276 279 281 284 288 293 298 302 303 303 301 300 300 302 303 305 307 310 312 314 318 321 324 327 329 329
219 222 226 230 227 220 217 219 223 227 232 235 238 241 242 239 235 230 223 217 212 208 206 205 206 208 213 218 225 233 241 248 253 255 255 250 245 240 234 232 232 234 236 239 243 249 255 260 262 263 262 262 261 260 260 261 263 266 269 274 278 282 285 289 293 297 300 302 302 301 299 299 300 301 303 306 308 310 313 316 319 323 326 328 329 329
214 216 221 227 229 228 223 222 225 230 233 237 240 241 239 234 228 221 214 210 207 206 206 207 210 215 222 230 239 247 253 257 258 257 253 248 243 239 234 230 230 232 235 238 243 249 254 258 259 258 255 254 254 255 257 259 263 267 272 277 283 288 292 296 298 299 300 300 299 298 297 298 299 302 304 306 309 311 314 318 321 325 327 329 329 328
212 212 216 221 225 229 231 231 233 235 237 239 240 239 236 229 222 216 211 210 210 213 216 220 224 229 236 245 252 256 259 259 256 252 247 244 242 239 233 228 228 230 235 239 244 249 253 255 254 252 250 250 251 254 257 260 265 270 276 282 289 295 299 301 301 300 299 298 296 295 295 297 299 302 304 307 310 313 316 320 323 326 329 329 328 327
215 212 212 216 220 225 231 239 246 248 248 246 243 239 234 227 222 218 216 218 222 227 232 235 238 242 246 252 256 258 258 256 250 245 242 242 241 236 231 226 226 230 235 241 245 249 251 251 250 248 247 248 251 255 259 263 268 274 280 288 294 299 302 302 300 298 296 294 292 293 295 297 300 302 305 308 311 315 318 322 325 328 329 329 327 326
224 217 212 213 215 218 224 237 251 257 257 253 247 240 233 228 224 222 223 228 233 238 241 242 243 246 248 251 253 252 251 248 243 240 239 239 237 233 228 227 228 233 238 243 246 247 248 247 246 245 246 249 253 257 261 266 272 278 285 292 298 301 302 300 298 295 292 290 290 292 294 297 300 303 305 309 313 317 320 324 327 329 329 328 326 325
232 225 219 214 212 212 214 221 234 248 254 252 247 240 233 228 225 225 229 234 238 240 240 241 244 246 247 246 244 242 239 238 236 236 235 234 232 230 229 230 233 237 242 245 246 245 245 244 244 244 247 250 254 258 263 269 275 282 289 295 298 300 300 298 295 291 288 287 289 292 295 297 300 303 307 311 315 319 322 325 327 329 328 327 325 326
234 229 224 215 209 207 210 208 214 226 238 246 245 240 233 228 227 229 233 235 236 235 237 243 247 247 244 240 235 230 226 226 228 230 230 228 227 228 231 233 236 240 243 245 244 243 242 242 242 244 246 250 254 259 264 271 278 285 290 294 297 298 297 294 290 286 285 286 289 292 295 298 301 304 309 313 317 320 324 326 328 328 327 326 325 327
233 228 222 212 206 206 212 214 214 214 219 231 241 242 236 233 232 233 232 229 227 228 237 245 246 242 237 231 225 220 216 217 220 224 227 228 227 227 230 234 238 241 242 242 241 241 240 240 241 242 244 248 253 259 266 273 280 286 290 293 295 295 293 289 285 282 284 286 289 292 295 298 302 306 310 315 318 322 325 327 328 327 326 325 326 330
233 225 218 211 207 208 213 217 217 215 214 216 223 231 235 235 235 232 226 220 219 223 232 236 236 232 227 222 218 215 214 215 220 225 230 232 230 228 230 236 240 241 241 241 241 241 241 241 241 241 243 247 253 261 269 276 282 287 290 293 293 292 288 283 280 281 283 286 289 292 295 299 303 308 312 316 320 323 326 327 327 326 325 325 327 334
239 230 222 216 212 211 213 216 218 218 216 214 213 215 220 224 224 222 218 215 216 221 225 228 228 225 220 215 213 215 219 223 229 233 235 233 230 228 233 240 245 245 244 244 243 243 243 241 241 241 244 251 259 267 275 280 285 288 291 292 290 286 281 277 278 280 283 285 288 292 295 300 305 310 314 318 321 324 327 327 326 324 323 325 330 338
251 241 233 226 222 219 218 218 218 219 218 217 214 212 212 213 213 212 211 212 214 219 223 225 224 220 215 212 214 220 228 234 238 238 237 232 229 231 239 247 250 251 249 248 246 245 243 241 241 243 250 259 267 275 280 284 286 288 289 288 284 279 274 274 277 279 282 285 289 292 296 301 307 311 316 319 323 325 327 326 325 323 323 327 334 342
266 254 245 237 232 227 225 223 221 221 220 219 217 214 211 208 206 205 208 210 213 217 221 222 221 217 213 212 217 225 234 239 239 236 232 229 229 235 245 251 253 253 251 248 246 243 241 240 243 249 258 267 274 279 282 284 285 286 285 282 276 271 270 273 276 279 281 285 288 292 297 303 308 313 317 320 324 326 326 325 323 322 323 330 341 348
281 269 259 250 242 236 232 228 226 224 221 219 216 213 209 204 201 202 206 208 211 215 218 220 219 216 213 213 217 224 230 234 233 230 228 227 231 238 246 250 251 249 247 244 242 240 240 244 250 259 267 273 277 279 281 282 282 281 278 273 268 266 269 272 275 278 281 284 288 292 298 305 310 314 318 321 324 326 325 323 321 320 324 338 351 358
291 282 272 263 255 247 240 234 230 226 222 217 213 209 205 200 198 199 203 205 209 213 216 217 218 216 214 214 216 219 223 226 227 227 227 229 234 239 244 245 245 243 241 240 239 242 246 253 260 267 272 275 276 277 277 277 277 274 268 263 261 264 268 271 274 277 280 283 287 293 301 307 312 315 319 322 325 325 324 322 319 319 330 355 6 10
295 289 282 274 266 258 250 242 236 230 224 218 212 206 201 198 197 198 201 203 207 210 212 214 215 215 214 213 214 215 218 220 223 226 229 232 235 238 241 240 240 239 240 241 244 249 255 260 265 269 272 273 273 273 273 271 268 263 257 255 258 263 267 271 273 276 278 282 288 296 303 308 312 316 319 323 325 324 322 320 317 320 354 18 20 19
295 292 288 282 276 268 261 253 245 239 232 225 217 210 203 200 199 200 201 203 205 207 209 210 212 212 212 212 213 214 215 217 221 224 228 232 235 237 238 238 239 242 245 249 252 257 261 264 266 267 269 269 269 268 266 262 256 251 248 251 257 263 267 270 272 274 276 282 290 298 305 309 312 316 320 323 325 324 320 317 316 334 29 30 24 21
290 291 290 287 283 278 271 264 257 250 244 238 231 223 215 209 205 204 204 205 205 206 206 207 207 208 209 211 211 212 213 216 220 224 228 231 234 236 237 238 241 246 251 255 258 261 263 265 265 264 264 263 262 259 255 249 243 241 243 250 257 262 265 267 268 271 276 284 293 301 306 309 312 316 321 324 324 322 317 314 318 26 40 30 22 18
283 287 289 289 288 285 281 275 269 262 255 249 243 237 230 223 217 212 209 208 206 205 204 203 203 203 205 207 209 209 210 215 220 225 227 230 232 235 238 241 245 249 253 256 258 260 261 262 261 259 257 254 251 247 241 236 234 236 242 251 257 260 262 263 265 268 276 286 295 302 306 308 312 317 323 325 324 319 312 306 353 57 43 30 21 14
275 280 285 288 289 289 288 285 280 273 266 258 252 246 240 234 228 222 216 212 209 206 203 201 199 199 200 202 204 206 208 213 219 224 228 230 233 236 240 243 247 251 254 256 256 256 256 254 252 250 246 241 237 233 229 228 230 235 244 252 255 257 257 258 261 268 277 289 297 302 305 308 313 319 324 325 321 314 302 274 103 66 46 32 20 11
267 272 278 284 288 290 290 289 286 282 276 268 259 251 245 239 234 229 223 218 212 208 205 202 201 200 198 198 199 202 206 211 218 225 229 232 235 238 241 245 248 251 252 253 252 250 248 244 240 236 232 228 225 222 221 224 230 238 246 251 252 251 251 254 259 268 280 290 297 301 303 307 314 321 325 323 316 305 270 166 116 79 51 34 19 10
263 265 270 277 283 286 288 288 288 285 282 276 267 258 249 241 236 231 227 222 217 212 208 205 204 203 202 199 198 200 205 210 216 223 228 232 235 238 241 244 246 247 248 246 243 239 235 231 226 221 219 217 216 215 217 223 232 241 246 248 247 246 247 251 259 270 282 291 296 299 301 307 315 323 325 321 310 285 199 152 122 93 66 41 22 18
262 261 265 271 278 283 286 286 286 285 283 280 274 265 254 243 236 231 228 224 220 216 211 208 206 205 205 204 203 204 206 210 214 219 224 228 232 235 239 241 242 241 240 237 232 226 222 217 213 210 208 208 209 212 218 226 236 242 243 242 240 239 242 249 259 272 283 289 293 296 300 308 317 323 324 316 294 235 176 150 131 112 93 74 63 77
265 261 262 267 274 280 284 285 285 284 283 281 278 271 261 249 239 232 227 224 221 218 215 212 209 208 207 207 207 208 210 212 215 218 222 225 229 232 235 237 236 233 230 225 220 215 210 206 202 200 201 201 204 210 220 231 238 240 237 234 233 234 238 247 260 273 283 287 290 292 299 309 319 324 320 299 240 183 159 144 135 126 116 104 99 104
271 264 263 266 273 279 284 286 286 285 283 281 278 274 267 257 245 236 229 225 222 220 218 215 213 211 210 211 211 213 215 217 219 221 224 226 229 230 231 231 230 226 222 217 211 205 200 197 195 195 196 200 205 213 224 233 237 235 229 226 227 230 236 246 259 272 280 283 286 290 298 310 320 320 305 244 187 160 134 117 109 104 99 94 93 102
273 266 263 265 272 278 282 285 286 286 284 281 278 274 269 262 252 242 233 227 224 222 220 218 217 215 215 216 216 217 219 220 222 224 226 228 229 229 228 226 224 220 215 210 203 197 193 192 191 192 195 202 210 220 229 234 234 229 223 219 220 226 234 245 258 269 275 278 281 286 296 307 313 303 256 189 166 146 119 96 80 72 70 70 73 87
269 262 260 263 269 274 277 281 284 286 285 283 279 275 270 264 256 246 237 230 226 224 222 221 220 219 219 220 221 221 222 223 224 226 227 227 226 225 223 220 217 213 208 202 196 192 189 189 191 194 199 206 216 225 231 231 227 222 216 214 216 223 232 243 256 264 269 272 276 282 291 299 292 252 197 171 157 140 117 88 68 56 54 56 64 82
263 257 256 261 266 270 273 277 280 283 284 283 280 277 272 265 258 248 238 231 226 223 222 221 221 221 222 222 223 223 224 224 225 225 225 225 223 221 218 215 211 206 201 196 191 189 188 189 193 198 204 212 222 228 229 225 220 214 210 211 214 222 231 243 252 258 262 264 268 273 279 270 243 206 179 162 150 134 111 85 67 55 50 55 70 95
257 252 252 258 263 266 268 271 275 279 281 281 280 276 272 266 259 251 241 232 226 222 221 220 221 222 224 225 225 225 224 224 224 224 224 222 220 217 213 209 204 199 195 191 189 188 189 192 196 202 209 217 225 228 224 218 210 205 205 208 212 219 228 238 246 251 252 253 255 253 244 228 207 188 171 159 145 128 105 83 68 59 60 70 92 115
252 248 251 257 260 262 264 266 270 273 276 277 276 274 270 266 260 253 245 236 229 224 222 221 220 221 223 225 226 226 225 224 223 222 221 219 216 212 208 203 198 194 190 188 188 189 191 195 200 206 213 221 226 225 219 211 203 200 201 205 210 216 222 231 238 242 242 240 233 221 213 205 193 179 166 154 141 123 103 86 73 68 74 90 113 129
248 248 253 257 259 260 261 263 265 268 270 271 271 269 267 264 260 255 248 240 232 226 223 221 221 222 224 225 225 226 225 224 223 221 218 215 211 207 202 197 194 190 188 187 187 190 193 198 204 210 217 224 225 221 212 203 197 196 199 203 208 214 221 228 231 232 227 219 208 202 199 193 183 171 160 147 134 120 104 90 81 80 90 108 124 135
242 246 253 257 259 259 259 260 262 264 265 266 265 264 262 260 257 254 249 243 236 231 226 223 223 224 225 225 225 225 225 224 221 218 213 209 204 200 196 192 190 189 188 188 189 192 196 202 210 217 223 224 221 215 205 196 193 194 198 202 207 212 217 221 222 218 209 198 194 194 192 186 175 165 154 143 131 119 107 97 89 90 100 116 128 136
236 242 250 254 256 256 256 257 258 260 261 262 261 259 258 256 254 251 247 243 239 234 231 228 226 225 225 225 225 225 223 221 216 210 204 199 195 192 190 189 189 189 190 192 195 198 204 210 217 222 225 221 214 204 195 190 190 193 197 201 205 209 212 212 209 203 193 186 186 189 186 180 171 162 153 142 131 120 112 107 100 99 106 118 129 137
228 235 243 248 251 252 252 254 255 256 257 258 258 257 255 253 251 248 245 242 238 235 232 229 227 226 226 225 224 220 215 208 200 194 189 186 186 187 189 190 191 193 195 199 203 209 215 219 223 224 221 214 204 193 187 186 188 192 196 199 203 205 205 202 197 190 180 177 180 182 181 174 166 159 151 141 130 122 117 113 109 106 109 119 129 136
222 228 238 243 246 246 247 249 251 252 254 254 254 253 251 249 247 244 241 238 235 232 229 227 226 225 224 222 217 209 199 190 184 181 180 182 186 189 192 195 197 200 203 207 212 216 220 222 223 221 216 207 196 186 182 183 187 191 194 197 200 200 198 194 187 181 175 176 177 178 175 169 163 157 150 140 132 126 123 120 114 110 110 117 127 135
219 225 235 241 241 240 240 242 245 248 250 250 250 249 248 246 243 239 236 233 230 226 223 221 221 222 220 215 206 195 185 179 177 179 183 188 191 194 196 199 202 205 208 212 214 217 218 218 216 213 209 201 190 181 179 183 187 191 193 195 196 194 190 185 180 175 173 175 176 176 172 167 162 156 149 140 135 133 131 127 118 112 109 114 123 132
219 223 233 240 240 236 234 235 239 243 246 247 247 246 245 243 240 236 231 227 224 220 216 216 217 219 216 208 197 188 181 178 179 184 191 194 195 196 197 199 202 206 209 212 214 215 215 212 208 202 197 192 185 179 179 183 187 189 191 191 191 189 184 178 175 173 172 174 176 174 171 165 160 155 148 141 138 138 137 132 123 114 109 110 116 125